Voltar ao catálogo

SL-16 DEB

LostLEO
NORAD 42240·DEBRIS·🇷🇺 Russia

Lançado Mar 26, 1993 de Baikonur Cosmodrome

Loading…

Próximas Passagens (próximas 24 horas)

TLE

ObsoletoSource: Space-Track

Época: Oct 21, 2022, 12:55 UTC

1 42240U 93016CU  22294.53829319  .00003840  00000-0  16862-2 0  9990
2 42240  70.9732 346.4882 0129175 110.2726 251.2339 14.19788910757441

Acompanhe SL-16 DEB em tempo real com AllMySat

Download on the App Store